Time,TemperatureF,DewpointF,PressureIn,WindDirection,WindDirectionDegrees,WindSpeedMPH,WindSpeedGustMPH,Humidity,HourlyPrecipIn,Conditions,Clouds,dailyrainin,SoftwareType,DateUTC
2013-01-12 00:04:00,12.1,7.1,30.03,West,274,0.0,0.0,80,0.00,,---,0.00,VWS V14.00,2013-01-12 07:04:00,
2013-01-12 00:09:00,12.9,8.2,30.03,West,274,0.0,0.0,81,0.00,,---,0.00,VWS V14.00,2013-01-12 07:09:00,
2013-01-12 00:14:00,13.2,7.9,30.03,West,274,0.0,0.0,79,0.00,,---,0.00,VWS V14.00,2013-01-12 07:14:00,
2013-01-12 00:19:00,12.7,6.9,30.03,West,274,0.0,0.0,77,0.00,,---,0.00,VWS V14.00,2013-01-12 07:19:00,
2013-01-12 00:24:00,12.3,6.8,30.03,West,274,0.0,0.0,78,0.00,,---,0.00,VWS V14.00,2013-01-12 07:24:00,
2013-01-12 00:29:00,11.7,6.2,30.03,West,274,0.0,0.0,78,0.00,,---,0.00,VWS V14.00,2013-01-12 07:29:00,
2013-01-12 00:34:00,11.2,6.0,30.03,West,274,0.0,0.0,79,0.00,,---,0.00,VWS V14.00,2013-01-12 07:34:00,
2013-01-12 00:39:00,11.0,6.1,30.04,West,274,0.0,0.0,80,0.00,,---,0.00,VWS V14.00,2013-01-12 07:39:00,
2013-01-12 00:44:00,10.9,6.2,30.04,West,274,0.0,0.0,81,0.00,,---,0.00,VWS V14.00,2013-01-12 07:44:00,
2013-01-12 00:49:00,10.9,6.2,30.04,West,274,0.0,0.0,81,0.00,,---,0.00,VWS V14.00,2013-01-12 07:49:00,
2013-01-12 00:54:00,10.8,6.1,30.04,West,274,0.0,0.0,81,0.00,,---,0.00,VWS V14.00,2013-01-12 07:54:00,
2013-01-12 00:59:00,10.5,5.8,30.04,West,274,0.0,0.0,81,0.00,,---,0.00,VWS V14.00,2013-01-12 07:59:00,
2013-01-12 01:04:00,10.5,5.8,30.05,West,274,0.0,0.0,81,0.00,,---,0.00,VWS V14.00,2013-01-12 08:04:00,
2013-01-12 01:09:00,10.8,6.7,30.05,West,274,0.0,0.0,83,0.00,,---,0.00,VWS V14.00,2013-01-12 08:09:00,
2013-01-12 01:14:00,11.5,7.9,30.05,West,274,0.0,0.0,85,0.00,,---,0.00,VWS V14.00,2013-01-12 08:14:00,
2013-01-12 01:19:00,12.3,8.7,30.05,West,274,0.0,0.0,85,0.00,,---,0.00,VWS V14.00,2013-01-12 08:19:00,
2013-01-12 01:24:00,12.9,9.2,30.06,West,274,0.0,0.0,85,0.00,,---,0.00,VWS V14.00,2013-01-12 08:24:00,
2013-01-12 01:29:00,13.5,9.8,30.06,West,274,0.0,0.0,85,0.00,,---,0.00,VWS V14.00,2013-01-12 08:29:00,
2013-01-12 01:34:00,14.1,10.2,30.06,West,274,0.0,0.0,84,0.00,,---,0.00,VWS V14.00,2013-01-12 08:34:00,
2013-01-12 01:39:00,14.4,10.2,30.06,West,274,0.0,0.0,83,0.00,,---,0.00,VWS V14.00,2013-01-12 08:39:00,
2013-01-12 01:44:00,14.6,10.1,30.06,West,274,0.0,0.0,82,0.00,,---,0.00,VWS V14.00,2013-01-12 08:44:00,
2013-01-12 01:49:00,14.6,10.1,30.06,West,274,0.0,0.0,82,0.00,,---,0.00,VWS V14.00,2013-01-12 08:49:00,
2013-01-12 01:54:00,14.8,10.3,30.06,West,274,0.0,0.0,82,0.00,,---,0.00,VWS V14.00,2013-01-12 08:54:00,
2013-01-12 01:59:00,15.1,10.6,30.07,West,274,0.0,0.0,82,0.00,,---,0.00,VWS V14.00,2013-01-12 08:59:00,
2013-01-12 02:04:00,15.3,10.5,30.07,West,274,0.0,0.0,81,0.00,,---,0.00,VWS V14.00,2013-01-12 09:04:00,
2013-01-12 02:09:00,15.3,10.2,30.07,West,274,0.0,0.0,80,0.00,,---,0.00,VWS V14.00,2013-01-12 09:09:00,
2013-01-12 02:14:00,15.3,10.2,30.07,West,274,0.0,0.0,80,0.00,,---,0.00,VWS V14.00,2013-01-12 09:14:00,
2013-01-12 02:19:00,16.1,10.8,30.07,West,274,0.0,0.0,79,0.00,,---,0.00,VWS V14.00,2013-01-12 09:19:00,
2013-01-12 02:24:00,16.6,10.4,30.07,West,274,0.0,0.0,76,0.00,,---,0.00,VWS V14.00,2013-01-12 09:24:00,
2013-01-12 02:29:00,16.3,9.5,30.07,West,274,0.0,0.0,74,0.00,,---,0.00,VWS V14.00,2013-01-12 09:29:00,
2013-01-12 02:34:00,15.8,8.7,30.07,West,274,0.0,0.0,73,0.00,,---,0.00,VWS V14.00,2013-01-12 09:34:00,
2013-01-12 02:39:00,15.4,8.3,30.07,West,274,0.0,0.0,73,0.00,,---,0.00,VWS V14.00,2013-01-12 09:39:00,
2013-01-12 02:44:00,14.7,7.3,30.07,West,274,0.0,0.0,72,0.00,,---,0.00,VWS V14.00,2013-01-12 09:44:00,
2013-01-12 02:49:00,14.1,7.3,30.07,West,274,0.0,0.0,74,0.00,,---,0.00,VWS V14.00,2013-01-12 09:49:00,
2013-01-12 02:54:00,13.1,6.4,30.07,West,274,0.0,0.0,74,0.00,,---,0.00,VWS V14.00,2013-01-12 09:54:00,
2013-01-12 02:59:00,12.0,5.3,30.07,West,274,0.0,0.0,74,0.00,,---,0.00,VWS V14.00,2013-01-12 09:59:00,
2013-01-12 03:04:00,11.0,4.9,30.07,West,274,0.0,0.0,76,0.00,,---,0.00,VWS V14.00,2013-01-12 10:04:00,
2013-01-12 03:09:00,10.7,5.5,30.07,West,274,0.0,0.0,79,0.00,,---,0.00,VWS V14.00,2013-01-12 10:09:00,
2013-01-12 03:14:00,11.4,6.7,30.07,West,274,0.0,0.0,81,0.00,,---,0.00,VWS V14.00,2013-01-12 10:14:00,
2013-01-12 03:19:00,12.7,8.0,30.07,West,274,0.0,0.0,81,0.00,,---,0.00,VWS V14.00,2013-01-12 10:19:00,
2013-01-12 03:24:00,13.8,8.5,30.07,West,274,0.0,0.0,79,0.00,,---,0.00,VWS V14.00,2013-01-12 10:24:00,
2013-01-12 03:29:00,14.1,8.2,30.08,West,274,0.0,0.0,77,0.00,,---,0.00,VWS V14.00,2013-01-12 10:29:00,
2013-01-12 03:34:00,13.5,6.8,30.08,West,274,0.0,0.0,74,0.00,,---,0.00,VWS V14.00,2013-01-12 10:34:00,
2013-01-12 03:39:00,12.6,5.9,30.08,West,274,0.0,0.0,74,0.00,,---,0.00,VWS V14.00,2013-01-12 10:39:00,
2013-01-12 03:44:00,12.0,5.9,30.08,West,274,0.0,0.0,76,0.00,,---,0.00,VWS V14.00,2013-01-12 10:44:00,
2013-01-12 03:49:00,11.8,5.7,30.07,West,274,0.0,0.0,76,0.00,,---,0.00,VWS V14.00,2013-01-12 10:49:00,
2013-01-12 03:54:00,12.0,6.2,30.07,West,274,0.0,0.0,77,0.00,,---,0.00,VWS V14.00,2013-01-12 10:54:00,
2013-01-12 03:59:00,12.5,6.7,30.07,West,274,0.0,0.0,77,0.00,,---,0.00,VWS V14.00,2013-01-12 10:59:00,
2013-01-12 04:04:00,13.1,7.3,30.08,West,274,0.0,0.0,77,0.00,,---,0.00,VWS V14.00,2013-01-12 11:04:00,
2013-01-12 04:09:00,13.2,6.8,30.08,West,274,0.0,0.0,75,0.00,,---,0.00,VWS V14.00,2013-01-12 11:09:00,
2013-01-12 04:14:00,12.9,6.2,30.08,West,274,0.0,0.0,74,0.00,,---,0.00,VWS V14.00,2013-01-12 11:14:00,
2013-01-12 04:19:00,12.7,6.3,30.08,West,274,0.0,0.0,75,0.00,,---,0.00,VWS V14.00,2013-01-12 11:19:00,
2013-01-12 04:24:00,12.7,6.3,30.08,West,274,0.0,0.0,75,0.00,,---,0.00,VWS V14.00,2013-01-12 11:24:00,
2013-01-12 04:29:00,12.1,5.7,30.08,West,274,0.0,0.0,75,0.00,,---,0.00,VWS V14.00,2013-01-12 11:29:00,
2013-01-12 04:34:00,11.5,5.4,30.08,West,274,0.0,0.0,76,0.00,,---,0.00,VWS V14.00,2013-01-12 11:34:00,
2013-01-12 04:39:00,11.1,5.3,30.08,West,274,0.0,0.0,77,0.00,,---,0.00,VWS V14.00,2013-01-12 11:39:00,
2013-01-12 04:44:00,11.1,5.6,30.08,West,274,0.0,0.0,78,0.00,,---,0.00,VWS V14.00,2013-01-12 11:44:00,
2013-01-12 04:49:00,11.6,6.6,30.08,West,274,0.0,0.0,80,0.00,,---,0.00,VWS V14.00,2013-01-12 11:49:00,
2013-01-12 04:54:00,12.2,6.9,30.08,West,274,0.0,0.0,79,0.00,,---,0.00,VWS V14.00,2013-01-12 11:54:00,
2013-01-12 04:59:00,13.1,7.3,30.08,West,274,0.0,0.0,77,0.00,,---,0.00,VWS V14.00,2013-01-12 11:59:00,
2013-01-12 05:04:00,13.5,7.1,30.08,West,274,0.0,0.0,75,0.00,,---,0.00,VWS V14.00,2013-01-12 12:04:00,
2013-01-12 05:09:00,13.6,6.9,30.08,West,274,0.0,0.0,74,0.00,,---,0.00,VWS V14.00,2013-01-12 12:09:00,
2013-01-12 05:15:00,13.7,7.0,30.08,West,274,0.0,0.0,74,0.00,,---,0.00,VWS V14.00,2013-01-12 12:15:00,
2013-01-12 05:20:00,13.7,7.0,30.09,West,274,0.0,0.0,74,0.00,,---,0.00,VWS V14.00,2013-01-12 12:20:00,
2013-01-12 05:25:00,13.7,7.0,30.08,West,274,0.0,0.0,74,0.00,,---,0.00,VWS V14.00,2013-01-12 12:25:00,
2013-01-12 05:30:00,13.8,7.1,30.08,West,274,0.0,0.0,74,0.00,,---,0.00,VWS V14.00,2013-01-12 12:30:00,
2013-01-12 05:35:00,13.7,6.7,30.09,West,274,0.0,0.0,73,0.00,,---,0.00,VWS V14.00,2013-01-12 12:35:00,
2013-01-12 05:40:00,13.8,7.1,30.09,West,274,0.0,0.0,74,0.00,,---,0.00,VWS V14.00,2013-01-12 12:40:00,
2013-01-12 05:45:00,14.1,7.3,30.10,West,274,0.0,0.0,74,0.00,,---,0.00,VWS V14.00,2013-01-12 12:45:00,
2013-01-12 05:50:00,14.2,6.8,30.10,West,274,0.0,0.0,72,0.00,,---,0.00,VWS V14.00,2013-01-12 12:50:00,
2013-01-12 05:55:00,14.1,6.8,30.10,West,274,0.0,0.0,72,0.00,,---,0.00,VWS V14.00,2013-01-12 12:55:00,
2013-01-12 06:00:00,14.4,7.0,30.10,West,274,0.0,0.0,72,0.00,,---,0.00,VWS V14.00,2013-01-12 13:00:00,
2013-01-12 06:05:00,14.7,7.0,30.10,West,274,0.0,0.0,71,0.00,,---,0.00,VWS V14.00,2013-01-12 13:05:00,
2013-01-12 06:10:00,14.6,6.9,30.10,West,274,0.0,0.0,71,0.00,,---,0.00,VWS V14.00,2013-01-12 13:10:00,
2013-01-12 06:15:00,14.4,6.7,30.10,West,274,0.0,0.0,71,0.00,,---,0.00,VWS V14.00,2013-01-12 13:15:00,
2013-01-12 06:20:00,14.4,7.0,30.10,West,274,0.0,0.0,72,0.00,,---,0.00,VWS V14.00,2013-01-12 13:20:00,
2013-01-12 06:25:00,14.8,7.1,30.10,West,274,0.0,0.0,71,0.00,,---,0.00,VWS V14.00,2013-01-12 13:25:00,
2013-01-12 06:30:00,14.2,6.2,30.11,West,274,0.0,0.0,70,0.00,,---,0.00,VWS V14.00,2013-01-12 13:30:00,
2013-01-12 06:35:00,13.6,5.7,30.11,West,274,0.0,0.0,70,0.00,,---,0.00,VWS V14.00,2013-01-12 13:35:00,
2013-01-12 06:40:00,12.8,5.2,30.11,West,274,0.0,0.0,71,0.00,,---,0.00,VWS V14.00,2013-01-12 13:40:00,
2013-01-12 06:45:00,12.4,5.4,30.12,West,274,0.0,0.0,73,0.00,,---,0.00,VWS V14.00,2013-01-12 13:45:00,
2013-01-12 06:50:00,12.7,6.3,30.12,West,274,0.0,0.0,75,0.00,,---,0.00,VWS V14.00,2013-01-12 13:50:00,
2013-01-12 06:55:00,13.5,7.1,30.12,West,274,0.0,0.0,75,0.00,,---,0.00,VWS V14.00,2013-01-12 13:55:00,
2013-01-12 07:00:00,14.0,7.2,30.12,West,274,0.0,0.0,74,0.00,,---,0.00,VWS V14.00,2013-01-12 14:00:00,
2013-01-12 07:05:00,14.1,7.1,30.12,West,274,0.0,0.0,73,0.00,,---,0.00,VWS V14.00,2013-01-12 14:05:00,
2013-01-12 07:10:00,14.3,7.2,30.13,West,274,0.0,0.0,73,0.00,,---,0.00,VWS V14.00,2013-01-12 14:10:00,
2013-01-12 07:15:00,14.1,6.8,30.12,West,274,0.0,0.0,72,0.00,,---,0.00,VWS V14.00,2013-01-12 14:15:00,
2013-01-12 07:20:00,13.3,5.7,30.13,West,274,0.0,0.0,71,0.00,,---,0.00,VWS V14.00,2013-01-12 14:20:00,
2013-01-12 07:25:00,13.1,6.1,30.13,West,274,0.0,0.0,73,0.00,,---,0.00,VWS V14.00,2013-01-12 14:25:00,
2013-01-12 07:30:00,13.4,7.0,30.14,West,271,0.0,0.0,75,0.00,,---,0.00,VWS V14.00,2013-01-12 14:30:00,
2013-01-12 07:35:00,13.9,7.4,30.14,West,271,0.0,0.0,75,0.00,,---,0.00,VWS V14.00,2013-01-12 14:35:00,
2013-01-12 07:40:00,14.6,7.8,30.15,West,271,0.0,0.0,74,0.00,,---,0.00,VWS V14.00,2013-01-12 14:40:00,
2013-01-12 07:45:00,15.4,8.0,30.15,West,271,0.0,0.0,72,0.00,,---,0.00,VWS V14.00,2013-01-12 14:45:00,
2013-01-12 07:50:00,16.0,8.3,30.15,West,271,0.0,0.0,71,0.00,,---,0.00,VWS V14.00,2013-01-12 14:50:00,
2013-01-12 07:55:00,16.4,8.7,30.15,West,271,0.0,0.0,71,0.00,,---,0.00,VWS V14.00,2013-01-12 14:55:00,
2013-01-12 08:00:00,16.6,8.2,30.15,West,271,0.0,0.0,69,0.00,,---,0.00,VWS V14.00,2013-01-12 15:00:00,
2013-01-12 08:05:00,16.5,8.1,30.16,West,271,0.0,0.0,69,0.00,,---,0.00,VWS V14.00,2013-01-12 15:05:00,
2013-01-12 08:10:00,17.0,9.2,30.16,West,271,0.0,0.0,71,0.00,,---,0.00,VWS V14.00,2013-01-12 15:10:00,
2013-01-12 08:15:00,18.2,11.0,30.16,West,271,0.0,0.0,73,0.00,,---,0.00,VWS V14.00,2013-01-12 15:15:00,
2013-01-12 08:20:00,19.5,12.0,30.16,West,271,0.0,0.0,72,0.00,,---,0.00,VWS V14.00,2013-01-12 15:20:00,
2013-01-12 08:25:00,20.6,13.0,30.16,West,271,0.0,0.0,72,0.00,,---,0.00,VWS V14.00,2013-01-12 15:25:00,
2013-01-12 08:30:00,21.4,14.4,30.17,West,271,0.0,0.0,74,0.00,,---,0.00,VWS V14.00,2013-01-12 15:30:00,
2013-01-12 08:35:00,22.6,16.5,30.17,West,271,0.0,0.0,77,0.00,,---,0.00,VWS V14.00,2013-01-12 15:35:00,
2013-01-12 08:40:00,24.3,16.6,30.16,West,271,0.0,0.0,72,0.00,,---,0.00,VWS V14.00,2013-01-12 15:40:00,
2013-01-12 08:45:00,26.0,16.2,30.17,West,271,0.0,0.0,66,0.00,,---,0.00,VWS V14.00,2013-01-12 15:45:00,
2013-01-12 08:50:00,27.6,13.6,30.17,West,271,0.0,0.0,55,0.00,,---,0.00,VWS V14.00,2013-01-12 15:50:00,
2013-01-12 08:55:00,28.8,13.0,30.17,WSW,238,0.0,2.0,51,0.00,,---,0.00,VWS V14.00,2013-01-12 15:55:00,
2013-01-12 09:00:00,29.7,14.2,30.17,SW,228,0.0,2.0,52,0.00,,---,0.00,VWS V14.00,2013-01-12 16:00:00,
2013-01-12 09:05:00,30.3,13.9,30.17,SW,228,0.0,0.0,50,0.00,,---,0.00,VWS V14.00,2013-01-12 16:05:00,
2013-01-12 09:10:00,31.0,13.6,30.17,South,184,1.0,1.0,48,0.00,,---,0.00,VWS V14.00,2013-01-12 16:10:00,
2013-01-12 09:15:00,31.3,12.9,30.17,SSE,168,0.0,1.0,46,0.00,,---,0.00,VWS V14.00,2013-01-12 16:15:00,
2013-01-12 09:20:00,31.6,12.2,30.17,SSE,168,0.0,1.0,44,0.00,,---,0.00,VWS V14.00,2013-01-12 16:20:00,
2013-01-12 09:25:00,31.9,11.4,30.17,SSE,168,0.0,1.0,42,0.00,,---,0.00,VWS V14.00,2013-01-12 16:25:00,
2013-01-12 09:30:00,32.4,10.2,30.17,SSE,168,0.0,2.0,39,0.00,,---,0.00,VWS V14.00,2013-01-12 16:30:00,
2013-01-12 09:35:00,32.7,10.5,30.17,SSE,161,0.0,0.0,39,0.00,,---,0.00,VWS V14.00,2013-01-12 16:35:00,
2013-01-12 09:40:00,32.7,11.1,30.18,SSE,162,0.0,3.0,40,0.00,,---,0.00,VWS V14.00,2013-01-12 16:40:00,
2013-01-12 09:45:00,32.7,9.3,30.18,SSE,163,0.0,3.0,37,0.00,,---,0.00,VWS V14.00,2013-01-12 16:45:00,
2013-01-12 09:50:00,33.2,10.9,30.18,SSE,163,0.0,3.0,39,0.00,,---,0.00,VWS V14.00,2013-01-12 16:50:00,
2013-01-12 09:55:00,33.2,9.1,30.18,WSW,239,0.0,4.0,36,0.00,,---,0.00,VWS V14.00,2013-01-12 16:55:00,
2013-01-12 10:00:00,32.9,8.9,30.18,WSW,238,1.0,4.0,36,0.00,,---,0.00,VWS V14.00,2013-01-12 17:00:00,
2013-01-12 10:05:00,32.5,7.9,30.18,SW,232,0.0,3.0,35,0.00,,---,0.00,VWS V14.00,2013-01-12 17:05:00,
2013-01-12 10:10:00,32.3,9.0,30.18,South,186,0.0,4.0,37,0.00,,---,0.00,VWS V14.00,2013-01-12 17:10:00,
2013-01-12 10:15:00,32.5,9.1,30.18,West,262,3.0,4.0,37,0.00,,---,0.00,VWS V14.00,2013-01-12 17:15:00,
2013-01-12 10:20:00,32.2,8.9,30.18,SW,222,0.0,5.0,37,0.00,,---,0.00,VWS V14.00,2013-01-12 17:20:00,
2013-01-12 10:25:00,32.3,8.4,30.18,SW,227,0.0,5.0,36,0.00,,---,0.00,VWS V14.00,2013-01-12 17:25:00,
2013-01-12 10:30:00,32.4,8.4,30.18,WSW,239,1.0,5.0,36,0.00,,---,0.00,VWS V14.00,2013-01-12 17:30:00,
2013-01-12 10:35:00,32.6,8.6,30.18,SSW,211,5.0,5.0,36,0.00,,---,0.00,VWS V14.00,2013-01-12 17:35:00,
2013-01-12 10:40:00,32.7,7.4,30.18,SW,218,2.0,7.0,34,0.00,,---,0.00,VWS V14.00,2013-01-12 17:40:00,
2013-01-12 10:45:00,32.8,8.8,30.18,SW,236,3.0,7.0,36,0.00,,---,0.00,VWS V14.00,2013-01-12 17:45:00,
2013-01-12 10:50:00,32.9,8.3,30.19,West,261,2.0,7.0,35,0.00,,---,0.00,VWS V14.00,2013-01-12 17:50:00,
2013-01-12 10:55:00,33.0,7.7,30.19,SW,224,2.0,8.0,34,0.00,,---,0.00,VWS V14.00,2013-01-12 17:55:00,
2013-01-12 11:00:00,33.1,8.4,30.19,SW,223,0.0,8.0,35,0.00,,---,0.00,VWS V14.00,2013-01-12 18:00:00,
2013-01-12 11:05:00,33.0,7.7,30.19,SW,229,0.0,7.0,34,0.00,,---,0.00,VWS V14.00,2013-01-12 18:05:00,
2013-01-12 11:10:00,33.2,8.5,30.18,SW,217,4.0,7.0,35,0.00,,---,0.00,VWS V14.00,2013-01-12 18:10:00,
2013-01-12 11:15:00,33.5,8.1,30.17,SW,224,0.0,9.0,34,0.00,,---,0.00,VWS V14.00,2013-01-12 18:15:00,
2013-01-12 11:20:00,33.2,7.9,30.17,SW,217,0.0,9.0,34,0.00,,---,0.00,VWS V14.00,2013-01-12 18:20:00,
2013-01-12 11:25:00,32.9,7.6,30.17,SW,234,0.0,9.0,34,0.00,,---,0.00,VWS V14.00,2013-01-12 18:25:00,
2013-01-12 11:30:00,33.2,8.5,30.17,WSW,248,0.0,9.0,35,0.00,,---,0.00,VWS V14.00,2013-01-12 18:30:00,
2013-01-12 11:35:00,33.7,8.3,30.17,West,273,2.0,13.0,34,0.00,,---,0.00,VWS V14.00,2013-01-12 18:35:00,
2013-01-12 11:40:00,34.3,8.2,30.17,West,269,1.0,13.0,33,0.00,,---,0.00,VWS V14.00,2013-01-12 18:40:00,
2013-01-12 11:45:00,33.9,7.8,30.17,West,270,7.0,15.0,33,0.00,,---,0.00,VWS V14.00,2013-01-12 18:45:00,
2013-01-12 11:50:00,33.3,8.0,30.17,West,277,8.0,15.0,34,0.00,,---,0.00,VWS V14.00,2013-01-12 18:50:00,
2013-01-12 11:55:00,33.7,7.7,30.16,WSW,247,6.0,17.0,33,0.00,,---,0.00,VWS V14.00,2013-01-12 18:55:00,
2013-01-12 12:00:00,34.1,7.3,30.16,WSW,257,5.0,17.0,32,0.00,,---,0.00,VWS V14.00,2013-01-12 19:00:00,
2013-01-12 12:05:00,33.7,7.7,30.16,WSW,248,0.0,12.0,33,0.00,,---,0.00,VWS V14.00,2013-01-12 19:05:00,
2013-01-12 12:10:00,33.6,7.6,30.16,SW,219,0.0,13.0,33,0.00,,---,0.00,VWS V14.00,2013-01-12 19:10:00,
2013-01-12 12:15:00,33.6,7.6,30.15,WSW,256,6.0,14.0,33,0.00,,---,0.00,VWS V14.00,2013-01-12 19:15:00,
2013-01-12 12:20:00,33.8,7.1,30.15,WSW,238,0.0,14.0,32,0.00,,---,0.00,VWS V14.00,2013-01-12 19:20:00,
2013-01-12 12:25:00,33.7,7.7,30.15,West,267,7.0,14.0,33,0.00,,---,0.00,VWS V14.00,2013-01-12 19:25:00,
2013-01-12 12:30:00,33.8,7.8,30.15,WSW,257,9.0,14.0,33,0.00,,---,0.00,VWS V14.00,2013-01-12 19:30:00,
2013-01-12 12:35:00,33.9,6.5,30.15,West,269,11.0,20.0,31,0.00,,---,0.00,VWS V14.00,2013-01-12 19:35:00,
2013-01-12 12:40:00,33.7,8.3,30.15,West,266,16.0,20.0,34,0.00,,---,0.00,VWS V14.00,2013-01-12 19:40:00,
2013-01-12 12:45:00,33.8,7.8,30.15,West,263,6.0,20.0,33,0.00,,---,0.00,VWS V14.00,2013-01-12 19:45:00,
2013-01-12 12:50:00,33.5,6.8,30.14,West,279,16.0,20.0,32,0.00,,---,0.00,VWS V14.00,2013-01-12 19:50:00,
2013-01-12 12:55:00,33.4,6.0,30.14,West,261,9.0,20.0,31,0.00,,---,0.00,VWS V14.00,2013-01-12 19:55:00,
2013-01-12 13:00:00,33.8,7.8,30.14,WSW,253,6.0,20.0,33,0.00,,---,0.00,VWS V14.00,2013-01-12 20:00:00,
2013-01-12 13:05:00,34.2,6.0,30.14,West,267,13.0,18.0,30,0.00,,---,0.00,VWS V14.00,2013-01-12 20:05:00,
2013-01-12 13:10:00,34.7,5.7,30.14,WSW,257,9.0,18.0,29,0.00,,---,0.00,VWS V14.00,2013-01-12 20:10:00,
2013-01-12 13:15:00,34.8,5.0,30.14,WSW,242,9.0,18.0,28,0.00,,---,0.00,VWS V14.00,2013-01-12 20:15:00,
2013-01-12 13:20:00,34.8,5.0,30.14,West,271,7.0,18.0,28,0.00,,---,0.00,VWS V14.00,2013-01-12 20:20:00,
2013-01-12 13:25:00,35.0,6.7,30.14,WNW,285,9.0,18.0,30,0.00,,---,0.00,VWS V14.00,2013-01-12 20:25:00,
2013-01-12 13:30:00,35.3,7.0,30.14,West,267,17.0,19.0,30,0.00,,---,0.00,VWS V14.00,2013-01-12 20:30:00,
2013-01-12 13:35:00,34.9,5.9,30.14,West,270,6.0,18.0,29,0.00,,---,0.00,VWS V14.00,2013-01-12 20:35:00,
2013-01-12 13:40:00,35.0,6.7,30.14,WSW,240,10.0,22.0,30,0.00,,---,0.00,VWS V14.00,2013-01-12 20:40:00,
2013-01-12 13:45:00,35.5,7.2,30.14,WNW,285,15.0,22.0,30,0.00,,---,0.00,VWS V14.00,2013-01-12 20:45:00,
2013-01-12 13:50:00,34.0,5.8,30.15,WSW,246,9.0,22.0,30,0.00,,---,0.00,VWS V14.00,2013-01-12 20:50:00,
2013-01-12 13:55:00,34.2,6.7,30.14,WNW,283,6.0,22.0,31,0.00,,---,0.00,VWS V14.00,2013-01-12 20:55:00,
2013-01-12 14:00:00,35.1,6.1,30.15,SW,234,8.0,22.0,29,0.00,,---,0.00,VWS V14.00,2013-01-12 21:00:00,
2013-01-12 14:05:00,35.7,5.8,30.14,WSW,249,16.0,17.0,28,0.00,,---,0.00,VWS V14.00,2013-01-12 21:05:00,
2013-01-12 14:10:00,35.3,6.2,30.15,West,269,15.0,22.0,29,0.00,,---,0.00,VWS V14.00,2013-01-12 21:10:00,
2013-01-12 14:15:00,35.3,6.2,30.14,WNW,288,15.0,22.0,29,0.00,,---,0.00,VWS V14.00,2013-01-12 21:15:00,
2013-01-12 14:20:00,35.3,5.5,30.15,West,277,13.0,22.0,28,0.00,,---,0.00,VWS V14.00,2013-01-12 21:20:00,
2013-01-12 14:25:00,34.6,4.1,30.15,West,276,14.0,22.0,27,0.00,,---,0.00,VWS V14.00,2013-01-12 21:25:00,
2013-01-12 14:30:00,33.4,3.8,30.15,WNW,287,17.0,22.0,28,0.00,,---,0.00,VWS V14.00,2013-01-12 21:30:00,
2013-01-12 14:35:00,34.0,4.3,30.15,West,269,15.0,25.0,28,0.00,,---,0.00,VWS V14.00,2013-01-12 21:35:00,
2013-01-12 14:40:00,34.8,4.2,30.15,West,281,12.0,25.0,27,0.00,,---,0.00,VWS V14.00,2013-01-12 21:40:00,
2013-01-12 14:45:00,35.0,4.4,30.15,West,267,17.0,25.0,27,0.00,,---,0.00,VWS V14.00,2013-01-12 21:45:00,
2013-01-12 14:51:00,34.6,4.1,30.16,WNW,284,10.0,25.0,27,0.00,,---,0.00,VWS V14.00,2013-01-12 21:51:00,
2013-01-12 14:56:00,34.8,5.0,30.16,West,275,14.0,25.0,28,0.00,,---,0.00,VWS V14.00,2013-01-12 21:56:00,
2013-01-12 15:01:00,35.0,5.2,30.15,WSW,254,15.0,25.0,28,0.00,,---,0.00,VWS V14.00,2013-01-12 22:01:00,
2013-01-12 15:06:00,35.2,5.4,30.16,West,268,6.0,16.0,28,0.00,,---,0.00,VWS V14.00,2013-01-12 22:06:00,
2013-01-12 15:11:00,35.2,5.4,30.16,WSW,257,12.0,18.0,28,0.00,,---,0.00,VWS V14.00,2013-01-12 22:11:00,
2013-01-12 15:16:00,35.0,3.6,30.16,WNW,284,11.0,18.0,26,0.00,,---,0.00,VWS V14.00,2013-01-12 22:16:00,
2013-01-12 15:21:00,34.9,3.5,30.16,WNW,298,12.0,18.0,26,0.00,,---,0.00,VWS V14.00,2013-01-12 22:21:00,
2013-01-12 15:26:00,34.8,5.0,30.16,West,272,9.0,18.0,28,0.00,,---,0.00,VWS V14.00,2013-01-12 22:26:00,
2013-01-12 15:31:00,34.8,3.4,30.17,WSW,258,15.0,18.0,26,0.00,,---,0.00,VWS V14.00,2013-01-12 22:31:00,
2013-01-12 15:36:00,34.9,3.5,30.16,West,264,13.0,18.0,26,0.00,,---,0.00,VWS V14.00,2013-01-12 22:36:00,
2013-01-12 15:41:00,34.2,3.7,30.16,West,281,12.0,18.0,27,0.00,,---,0.00,VWS V14.00,2013-01-12 22:41:00,
2013-01-12 15:46:00,34.1,5.2,30.16,West,275,8.0,18.0,29,0.00,,---,0.00,VWS V14.00,2013-01-12 22:46:00,
2013-01-12 15:51:00,33.8,4.2,30.16,West,279,10.0,18.0,28,0.00,,---,0.00,VWS V14.00,2013-01-12 22:51:00,
2013-01-12 15:56:00,34.1,4.4,30.16,WNW,300,9.0,18.0,28,0.00,,---,0.00,VWS V14.00,2013-01-12 22:56:00,
2013-01-12 16:01:00,34.2,3.7,30.17,West,277,7.0,18.0,27,0.00,,---,0.00,VWS V14.00,2013-01-12 23:01:00,
2013-01-12 16:06:00,34.0,5.1,30.17,NW,307,10.0,11.0,29,0.00,,---,0.00,VWS V14.00,2013-01-12 23:06:00,
2013-01-12 16:11:00,34.4,5.4,30.17,West,259,6.0,13.0,29,0.00,,---,0.00,VWS V14.00,2013-01-12 23:11:00,
2013-01-12 16:16:00,34.2,3.7,30.17,West,271,1.0,14.0,27,0.00,,---,0.00,VWS V14.00,2013-01-12 23:16:00,
2013-01-12 16:21:00,34.1,5.2,30.17,WNW,283,10.0,14.0,29,0.00,,---,0.00,VWS V14.00,2013-01-12 23:21:00,
2013-01-12 16:26:00,34.1,4.4,30.17,WNW,300,12.0,14.0,28,0.00,,---,0.00,VWS V14.00,2013-01-12 23:26:00,
2013-01-12 16:31:00,33.8,4.9,30.17,West,267,10.0,15.0,29,0.00,,---,0.00,VWS V14.00,2013-01-12 23:31:00,
2013-01-12 16:36:00,33.3,5.2,30.17,WNW,294,11.0,14.0,30,0.00,,---,0.00,VWS V14.00,2013-01-12 23:36:00,
2013-01-12 16:41:00,33.4,4.6,30.17,West,263,9.0,14.0,29,0.00,,---,0.00,VWS V14.00,2013-01-12 23:41:00,
2013-01-12 16:46:00,33.4,4.6,30.17,West,278,10.0,14.0,29,0.00,,---,0.00,VWS V14.00,2013-01-12 23:46:00,
2013-01-12 16:51:00,33.0,5.0,30.17,West,280,6.0,14.0,30,0.00,,---,0.00,VWS V14.00,2013-01-12 23:51:00,
2013-01-12 16:56:00,32.6,4.6,30.17,West,266,6.0,14.0,30,0.00,,---,0.00,VWS V14.00,2013-01-12 23:56:00,
2013-01-12 17:01:00,32.3,5.1,30.18,West,277,6.0,14.0,31,0.00,,---,0.00,VWS V14.00,2013-01-13 00:01:00,
2013-01-12 17:06:00,32.0,5.5,30.18,West,271,6.0,12.0,32,0.00,,---,0.00,VWS V14.00,2013-01-13 00:06:00,
2013-01-12 17:11:00,31.7,5.2,30.18,West,265,7.0,12.0,32,0.00,,---,0.00,VWS V14.00,2013-01-13 00:11:00,
2013-01-12 17:16:00,31.5,5.7,30.18,West,277,4.0,12.0,33,0.00,,---,0.00,VWS V14.00,2013-01-13 00:16:00,
2013-01-12 17:21:00,31.1,6.0,30.18,West,278,6.0,12.0,34,0.00,,---,0.00,VWS V14.00,2013-01-13 00:21:00,
2013-01-12 17:26:00,30.8,5.8,30.19,West,269,6.0,12.0,34,0.00,,---,0.00,VWS V14.00,2013-01-13 00:26:00,
2013-01-12 17:31:00,30.3,5.3,30.19,West,269,4.0,12.0,34,0.00,,---,0.00,VWS V14.00,2013-01-13 00:31:00,
2013-01-12 17:36:00,29.9,5.6,30.19,West,269,3.0,6.0,35,0.00,,---,0.00,VWS V14.00,2013-01-13 00:36:00,
2013-01-12 17:41:00,29.2,5.6,30.18,West,269,0.0,6.0,36,0.00,,---,0.00,VWS V14.00,2013-01-13 00:41:00,
2013-01-12 17:46:00,28.3,5.4,30.18,West,269,0.0,6.0,37,0.00,,---,0.00,VWS V14.00,2013-01-13 00:46:00,
2013-01-12 17:51:00,27.5,4.7,30.18,West,269,0.0,6.0,37,0.00,,---,0.00,VWS V14.00,2013-01-13 00:51:00,
2013-01-12 17:56:00,26.7,4.5,30.18,West,269,0.0,6.0,38,0.00,,---,0.00,VWS V14.00,2013-01-13 00:56:00,
2013-01-12 18:01:00,26.0,4.4,30.18,West,269,0.0,0.0,39,0.00,,---,0.00,VWS V14.00,2013-01-13 01:01:00,
2013-01-12 18:06:00,25.2,4.3,30.18,West,269,0.0,0.0,40,0.00,,---,0.00,VWS V14.00,2013-01-13 01:06:00,
2013-01-12 18:11:00,24.2,3.4,30.19,West,269,0.0,0.0,40,0.00,,---,0.00,VWS V14.00,2013-01-13 01:11:00,
2013-01-12 18:16:00,23.4,3.7,30.19,West,269,0.0,0.0,42,0.00,,---,0.00,VWS V14.00,2013-01-13 01:16:00,
2013-01-12 18:21:00,22.5,3.4,30.20,West,269,0.0,0.0,43,0.00,,---,0.00,VWS V14.00,2013-01-13 01:21:00,
2013-01-12 18:26:00,22.0,3.9,30.20,West,269,0.0,0.0,45,0.00,,---,0.00,VWS V14.00,2013-01-13 01:26:00,
2013-01-12 18:32:00,21.8,3.7,30.20,West,269,0.0,0.0,45,0.00,,---,0.00,VWS V14.00,2013-01-13 01:32:00,
2013-01-12 18:37:00,21.0,3.5,30.20,West,269,0.0,0.0,46,0.00,,---,0.00,VWS V14.00,2013-01-13 01:37:00,
2013-01-12 18:42:00,20.2,2.7,30.21,West,269,0.0,0.0,46,0.00,,---,0.00,VWS V14.00,2013-01-13 01:42:00,
2013-01-12 18:47:00,19.3,3.3,30.21,West,269,0.0,0.0,49,0.00,,---,0.00,VWS V14.00,2013-01-13 01:47:00,
2013-01-12 18:52:00,18.6,3.5,30.21,West,269,0.0,0.0,51,0.00,,---,0.00,VWS V14.00,2013-01-13 01:52:00,
2013-01-12 18:57:00,18.5,3.8,30.21,West,269,0.0,0.0,52,0.00,,---,0.00,VWS V14.00,2013-01-13 01:57:00,
2013-01-12 19:02:00,18.6,4.3,30.21,West,269,0.0,0.0,53,0.00,,---,0.00,VWS V14.00,2013-01-13 02:02:00,
2013-01-12 19:07:00,18.9,4.2,30.21,West,269,0.0,0.0,52,0.00,,---,0.00,VWS V14.00,2013-01-13 02:07:00,
2013-01-12 19:12:00,18.8,3.2,30.21,West,269,0.0,0.0,50,0.00,,---,0.00,VWS V14.00,2013-01-13 02:12:00,
2013-01-12 19:17:00,17.9,2.4,30.21,West,269,0.0,0.0,50,0.00,,---,0.00,VWS V14.00,2013-01-13 02:17:00,
2013-01-12 19:22:00,17.2,3.4,30.22,West,269,0.0,0.0,54,0.00,,---,0.00,VWS V14.00,2013-01-13 02:22:00,
2013-01-12 19:27:00,17.4,4.0,30.22,West,269,0.0,0.0,55,0.00,,---,0.00,VWS V14.00,2013-01-13 02:27:00,
2013-01-12 19:32:00,16.7,2.5,30.22,West,269,0.0,0.0,53,0.00,,---,0.00,VWS V14.00,2013-01-13 02:32:00,
2013-01-12 19:37:00,15.7,2.0,30.22,West,269,0.0,0.0,54,0.00,,---,0.00,VWS V14.00,2013-01-13 02:37:00,
2013-01-12 19:42:00,14.5,1.3,30.22,West,269,0.0,0.0,55,0.00,,---,0.00,VWS V14.00,2013-01-13 02:42:00,
2013-01-12 19:47:00,13.6,1.6,30.23,West,269,0.0,0.0,58,0.00,,---,0.00,VWS V14.00,2013-01-13 02:47:00,
2013-01-12 19:52:00,13.1,1.8,30.23,West,269,0.0,0.0,60,0.00,,---,0.00,VWS V14.00,2013-01-13 02:52:00,
2013-01-12 19:57:00,13.1,2.2,30.23,West,269,0.0,0.0,61,0.00,,---,0.00,VWS V14.00,2013-01-13 02:57:00,
2013-01-12 20:02:00,13.2,3.0,30.23,West,269,0.0,0.0,63,0.00,,---,0.00,VWS V14.00,2013-01-13 03:02:00,
2013-01-12 20:07:00,13.7,3.5,30.23,West,269,0.0,0.0,63,0.00,,---,0.00,VWS V14.00,2013-01-13 03:07:00,
2013-01-12 20:12:00,14.5,3.9,30.23,West,269,0.0,0.0,62,0.00,,---,0.00,VWS V14.00,2013-01-13 03:12:00,
2013-01-12 20:17:00,14.9,3.9,30.23,West,269,0.0,0.0,61,0.00,,---,0.00,VWS V14.00,2013-01-13 03:17:00,
2013-01-12 20:22:00,14.4,3.1,30.24,West,269,0.0,0.0,60,0.00,,---,0.00,VWS V14.00,2013-01-13 03:22:00,
2013-01-12 20:27:00,13.5,2.9,30.23,West,269,0.0,0.0,62,0.00,,---,0.00,VWS V14.00,2013-01-13 03:27:00,
2013-01-12 20:32:00,13.0,2.4,30.23,West,269,0.0,0.0,62,0.00,,---,0.00,VWS V14.00,2013-01-13 03:32:00,
2013-01-12 20:37:00,12.5,2.3,30.23,West,269,0.0,0.0,63,0.00,,---,0.00,VWS V14.00,2013-01-13 03:37:00,
2013-01-12 20:42:00,12.2,3.0,30.24,West,269,0.0,0.0,66,0.00,,---,0.00,VWS V14.00,2013-01-13 03:42:00,
2013-01-12 20:47:00,12.4,2.9,30.24,West,269,0.0,0.0,65,0.00,,---,0.00,VWS V14.00,2013-01-13 03:47:00,
2013-01-12 20:52:00,12.3,3.1,30.24,West,269,0.0,0.0,66,0.00,,---,0.00,VWS V14.00,2013-01-13 03:52:00,
2013-01-12 20:57:00,12.5,4.0,30.24,West,269,0.0,0.0,68,0.00,,---,0.00,VWS V14.00,2013-01-13 03:57:00,
2013-01-12 21:02:00,12.7,3.8,30.24,West,269,0.0,0.0,67,0.00,,---,0.00,VWS V14.00,2013-01-13 04:02:00,
2013-01-12 21:07:00,13.1,3.9,30.24,West,269,0.0,0.0,66,0.00,,---,0.00,VWS V14.00,2013-01-13 04:07:00,
2013-01-12 21:12:00,13.4,3.5,30.25,West,269,0.0,0.0,64,0.00,,---,0.00,VWS V14.00,2013-01-13 04:12:00,
2013-01-12 21:17:00,12.7,2.8,30.25,West,269,0.0,0.0,64,0.00,,---,0.00,VWS V14.00,2013-01-13 04:17:00,
2013-01-12 21:22:00,12.1,2.9,30.25,West,269,0.0,0.0,66,0.00,,---,0.00,VWS V14.00,2013-01-13 04:22:00,
2013-01-12 21:27:00,12.3,4.1,30.25,West,269,0.0,0.0,69,0.00,,---,0.00,VWS V14.00,2013-01-13 04:27:00,
2013-01-12 21:32:00,13.4,5.1,30.25,West,269,0.0,0.0,69,0.00,,---,0.00,VWS V14.00,2013-01-13 04:32:00,
2013-01-12 21:37:00,14.8,5.5,30.25,West,269,0.0,0.0,66,0.00,,---,0.00,VWS V14.00,2013-01-13 04:37:00,
2013-01-12 21:42:00,15.7,5.4,30.25,West,269,0.0,0.0,63,0.00,,---,0.00,VWS V14.00,2013-01-13 04:42:00,
2013-01-12 21:47:00,15.8,5.1,30.25,West,269,0.0,0.0,62,0.00,,---,0.00,VWS V14.00,2013-01-13 04:47:00,
2013-01-12 21:52:00,16.1,5.0,30.26,West,269,0.0,0.0,61,0.00,,---,0.00,VWS V14.00,2013-01-13 04:52:00,
2013-01-12 21:57:00,15.8,4.8,30.26,West,269,0.0,0.0,61,0.00,,---,0.00,VWS V14.00,2013-01-13 04:57:00,
2013-01-12 22:00:00,15.6,4.2,30.25,West,269,0.0,0.0,60,0.00,,---,0.00,VWS V14.00,2013-01-13 05:00:00,
2013-01-12 22:01:00,15.5,4.5,30.25,West,269,0.0,0.0,61,0.00,,---,0.00,VWS V14.00,2013-01-13 05:01:00,
2013-01-12 22:03:00,15.4,4.4,30.25,West,269,0.0,0.0,61,0.00,,---,0.00,VWS V14.00,2013-01-13 05:03:00,
2013-01-12 22:08:00,16.1,5.7,30.25,West,269,0.0,0.0,63,0.00,,---,0.00,VWS V14.00,2013-01-13 05:08:00,
2013-01-12 22:13:00,16.6,5.2,30.25,West,269,0.0,0.0,60,0.00,,---,0.00,VWS V14.00,2013-01-13 05:13:00,
2013-01-12 22:18:00,16.4,5.7,30.26,West,269,0.0,0.0,62,0.00,,---,0.00,VWS V14.00,2013-01-13 05:18:00,
2013-01-12 22:23:00,16.3,4.9,30.25,West,269,0.0,0.0,60,0.00,,---,0.00,VWS V14.00,2013-01-13 05:23:00,
2013-01-12 22:28:00,15.3,4.6,30.25,West,269,0.0,0.0,62,0.00,,---,0.00,VWS V14.00,2013-01-13 05:28:00,
2013-01-12 22:33:00,14.8,4.8,30.25,West,269,0.0,0.0,64,0.00,,---,0.00,VWS V14.00,2013-01-13 05:33:00,
2013-01-12 22:38:00,15.0,5.0,30.26,West,269,0.0,0.0,64,0.00,,---,0.00,VWS V14.00,2013-01-13 05:38:00,
2013-01-12 22:43:00,15.1,4.4,30.26,West,269,0.0,0.0,62,0.00,,---,0.00,VWS V14.00,2013-01-13 05:43:00,
2013-01-12 22:48:00,14.2,3.9,30.26,West,269,0.0,0.0,63,0.00,,---,0.00,VWS V14.00,2013-01-13 05:48:00,
2013-01-12 22:53:00,13.0,2.8,30.26,West,269,0.0,0.0,63,0.00,,---,0.00,VWS V14.00,2013-01-13 05:53:00,
2013-01-12 22:58:00,12.2,3.3,30.26,West,269,0.0,0.0,67,0.00,,---,0.00,VWS V14.00,2013-01-13 05:58:00,
2013-01-12 23:03:00,13.1,4.8,30.26,West,269,0.0,0.0,69,0.00,,---,0.00,VWS V14.00,2013-01-13 06:03:00,
2013-01-12 23:08:00,15.0,5.7,30.26,West,269,0.0,0.0,66,0.00,,---,0.00,VWS V14.00,2013-01-13 06:08:00,
2013-01-12 23:13:00,16.2,5.8,30.26,West,269,0.0,0.0,63,0.00,,---,0.00,VWS V14.00,2013-01-13 06:13:00,
2013-01-12 23:18:00,16.5,5.4,30.26,West,269,0.0,0.0,61,0.00,,---,0.00,VWS V14.00,2013-01-13 06:18:00,
2013-01-12 23:23:00,16.4,5.0,30.26,West,269,0.0,0.0,60,0.00,,---,0.00,VWS V14.00,2013-01-13 06:23:00,
2013-01-12 23:28:00,16.6,5.5,30.26,West,269,0.0,0.0,61,0.00,,---,0.00,VWS V14.00,2013-01-13 06:28:00,
2013-01-12 23:33:00,17.2,5.7,30.26,West,269,0.0,0.0,60,0.00,,---,0.00,VWS V14.00,2013-01-13 06:33:00,
2013-01-12 23:38:00,17.4,5.5,30.26,West,269,0.0,0.0,59,0.00,,---,0.00,VWS V14.00,2013-01-13 06:38:00,
2013-01-12 23:43:00,17.8,5.5,30.27,West,269,0.0,0.0,58,0.00,,---,0.00,VWS V14.00,2013-01-13 06:43:00,
2013-01-12 23:48:00,18.0,5.7,30.26,West,269,0.0,0.0,58,0.00,,---,0.00,VWS V14.00,2013-01-13 06:48:00,
2013-01-12 23:53:00,17.7,5.1,30.27,West,269,0.0,0.0,57,0.00,,---,0.00,VWS V14.00,2013-01-13 06:53:00,
2013-01-12 23:58:00,17.2,5.0,30.26,West,269,0.0,0.0,58,0.00,,---,0.00,VWS V14.00,2013-01-13 06:58:00,